Content
SEND FEEDBACK

Daily
Averages
Monthly
Summary
United States of America

SEVIERVILLE, TENNESSEE


Home > North America > United States > Tennessee
Elevation: 900 feet     Latitude: 35 52N     Longitude: 083 33W

WEATHER
 
SELECT A DAY
Number of Records: 202,081;   Date Range: 1/1/95 - 7/29/14
 
SHARE

PRINT THIS DATA

[ ← Previous Day ]
WEATHER ALMANAC - FEBRUARY 13, 2013
[ Next Day → ]
[ °C ]   °F
Weather ElementAverageHighLow
Temperature43.4 °F48.2 °F (12:38 pm)37 °F (9:53 pm)
Dewpoint39.9 °F45 °F (12:53 pm)32 °F (8:53 pm)
Humidity87.3 %93 % (6:18 am)70 % (4:53 pm)
Barometer29.76 in29.99 in (10:53 pm)29.70 in (5:43 am)
Wind Speed9.1 mph23 mph (12:38 pm)
Wind Gust31.1 mph (3:02 pm)
Weather ElementAverage
Visibility5.3 mi
Wind DirectionSSW (210.2 °)

Weather ElementTotal
Precipitation0.39 in
Heating Degree Days22.4 (Base 65)
Averaged from 48 records on February 13, 2013
WEATHER CONDITIONS BREAKOUT
WIND DIRECTION BREAKOUT
WEATHER BY HOUR - FEBRUARY 13, 2013
[ °C ]   °F
Local TimeTemperatureDewpointHumidityBarometerVisibilityWind DirectionWind SpeedGust SpeedPrecipitationEventsConditions
1:53 AM43.0 °F37.9 °F82 %29.82 in10.0 miNNW (340°)3.5 mph0.03 inRainLight Rain
2:53 AM43.0 °F39.0 °F86 %29.78 in5.0 miCalm0.02 inRainLight Rain
3:53 AM42.1 °F39.0 °F89 %29.75 in10.0 miENE (70°)3.5 mph0.09 inOvercast
4:53 AM42.1 °F39.9 °F92 %29.73 in10.0 miCalm0.00 inOvercast
5:43 AM42.8 °F39.2 °F87 %29.70 in5.0 miNorth (360°)3.5 mph0.00 inRainLight Rain
5:53 AM42.1 °F39.9 °F92 %29.70 in5.0 miNorth (360°)3.5 mph0.00 inRainLight Rain
6:18 AM42.8 °F41.0 °F93 %29.70 in7.0 miNorth (10°)3.5 mph0.00 inRainLight Rain
6:53 AM43.0 °F39.9 °F89 %29.70 in5.0 miNorth (10°)3.5 mph0.00 inRainLight Rain
7:43 AM42.8 °F41.0 °F93 %29.70 in2.5 miNorth (350°)3.5 mph0.00 inRainLight Rain
7:53 AM43.0 °F41.0 °F93 %29.70 in2.5 miCalm0.00 inRainLight Rain
8:03 AM42.8 °F41.0 °F93 %29.70 in1.8 miCalm0.01 inRainLight Rain
8:18 AM42.8 °F41.0 °F93 %29.71 in1.2 miWSW (250°)5.8 mph0.01 inRainLight Rain
8:48 AM42.8 °F41.0 °F93 %29.70 in1.0 miWSW (250°)3.5 mph0.02 inRainLight Rain
8:51 AM42.8 °F41.0 °F93 %29.70 in1.0 miWest (260°)3.5 mph0.02 inRainLight Rain
8:53 AM42.8 °F41.0 °F93 %29.70 in1.0 miWSW (250°)3.5 mphRainLight Rain
9:12 AM42.8 °F41.0 °F93 %29.72 in1.2 miSW (230°)5.8 mph0.01 inOvercast
9:53 AM43.0 °F41.0 °F93 %29.72 in1.2 miSW (220°)4.6 mph0.01 inOvercast
10:41 AM44.6 °F42.8 °F93 %29.71 in1.0 miWSW (240°)8.1 mph0.02 inRainLight Rain
10:53 AM44.1 °F42.1 °F93 %29.72 in1.0 miWSW (250°)6.9 mph0.03 inRainLight Rain
11:09 AM44.6 °F42.8 °F93 %29.71 in1.5 miSW (230°)8.1 mph0.00 inRainLight Rain
11:18 AM44.6 °F42.8 °F93 %29.71 in2.0 miSW (230°)9.2 mph0.00 inOvercast
11:32 AM44.6 °F42.8 °F93 %29.72 in3.0 miSW (220°)8.1 mph0.00 inDrizzle
12:00 PM46.4 °F44.6 °F93 %29.70 in3.0 miSSW (210°)13.8 mph0.00 inDrizzle
12:08 PM46.4 °F44.6 °F93 %29.70 in4.0 miSW (220°)13.8 mph0.00 inDrizzle
12:21 PM46.4 °F44.6 °F93 %29.70 in2.0 miSW (230°)18.4 mph0.00 inRainLight Rain
12:38 PM48.2 °F44.6 °F87 %29.70 in3.0 miSW (230°)23.0 mph29.9 mph0.00 inRainLight Rain
12:47 PM48.2 °F44.6 °F87 %29.70 in2.0 miSW (230°)19.6 mph0.00 inRainLight Rain
12:48 PM48.2 °F44.6 °F87 %29.70 in1.5 miSW (230°)18.4 mph0.00 inRainLight Rain
12:53 PM46.9 °F45.0 °F93 %29.70 in1.2 miSW (230°)19.6 mph0.00 inRainRain
1:12 PM46.4 °F44.6 °F93 %29.71 in2.5 miWest (260°)19.6 mph27.6 mph0.04 inRainLight Rain
1:24 PM46.4 °F44.6 °F93 %29.71 in4.0 miWSW (250°)20.7 mph0.04 inOvercast
1:53 PM46.9 °F43.0 °F86 %29.73 in2.5 miWSW (250°)23.0 mph29.9 mph0.04 inRainLight Rain
2:16 PM46.4 °F42.8 °F87 %29.73 in5.0 miWSW (240°)16.1 mph26.5 mph0.00 inOvercast
2:39 PM46.4 °F42.8 °F87 %29.74 in5.0 miSW (230°)15.0 mph0.00 inOvercast
2:53 PM45.0 °F41.0 °F86 %29.75 in10.0 miWest (280°)17.3 mph0.00 inRainLight Rain
3:02 PM44.6 °F39.2 °F81 %29.75 in10.0 miWest (280°)17.3 mph31.1 mph0.00 inOvercast
3:24 PM44.6 °F37.4 °F76 %29.76 in10.0 miWest (270°)15.0 mph23.0 mph0.00 inOvercast
3:53 PM45.0 °F37.0 °F74 %29.80 in10.0 miWest (260°)19.6 mph24.2 mph0.00 inMostly Cloudy
4:17 PM42.8 °F35.6 °F76 %29.82 in10.0 miWSW (250°)12.7 mph21.9 mphOvercast
4:53 PM42.1 °F33.1 °F70 %29.86 in10.0 miWest (280°)9.2 mphOvercast
5:53 PM41.0 °F33.1 °F73 %29.89 in10.0 miWest (270°)5.8 mphMostly Cloudy
6:50 PM39.2 °F33.8 °F81 %29.91 in10.0 miWSW (240°)5.8 mphOvercast
6:53 PM39.9 °F34.0 °F79 %29.91 in10.0 miSW (230°)5.8 mphOvercast
7:53 PM39.0 °F34.0 °F82 %29.94 in10.0 miWSW (250°)6.9 mphOvercast
8:53 PM37.9 °F32.0 °F79 %29.95 in10.0 miWest (270°)4.6 mphOvercast
9:53 PM37.0 °F32.0 °F82 %29.97 in10.0 miWest (270°)4.6 mphMostly Cloudy
10:53 PM37.9 °F32.0 °F79 %29.99 in10.0 miCalmOvercast
11:53 PM37.0 °F32.0 °F82 %29.99 in10.0 miCalmOvercast
Hourly data recorded from KTYS, located miles away from Sevierville, Tennessee







STORIES FROM OUR PARTNERS